Dublin, VA

1:01 AM EST on December 06, 2019 (GMT -0500)
New River Valley

Weather History for KPSK - October, 2019

Change the Weather History Date:

Monday, October 14, 2019

  Actual Average (KBCB) Record (KBCB)
Temperature  
Mean Temperature 56 °F -  
Max Temperature 72 °F 68 °F 84 °F (1954)
Min Temperature 40 °F 39 °F 21 °F (1988)
Degree Days  
Heating Degree Days 9    
Growing Degree Days 6 (Base 50)    
Moisture  
Dew Point 39 °F    
Average Humidity 59    
Maximum Humidity 100    
Minimum Humidity 24    
Precipitation  
Precipitation 0.00 in - - ()
Sea Level Pressure  
Sea Level Pressure 30.12 in    
Wind  
Wind Speed 4 mph (WSW)    
Max Wind Speed 10 mph    
Max Gust Speed 17 mph    
Visibility 9 miles    
Events Fog    
Averages and records for this station are not official NWS values.
T = Trace of Precipitation, MM = Missing Value Source: NWS Daily Summary

Daily Weather History Graph

Daily Weather History Graph

Search for Another Location

Airport or City:

Astronomy

Oct. 14, 2019 Rise Set
Actual Time 7:29 AM EDT 6:47 PM EDT
Civil Twilight 7:03 AM EDT 7:13 PM EDT
Nautical Twilight 6:33 AM EDT 7:43 PM EDT
Astronomical Twilight 6:02 AM EDT 8:13 PM EDT
Moon 7:37 PM EDT (10/14) 8:00 AM EDT (10/14)
Length of Visible Light 12h 10m
Length of Day
11h 18m
Waxing Gibbous, 99% of the Moon is Illuminated
Oct 14
Waxing Gibbous
Oct 21
Last Quarter
Oct 27
New
Nov 4
First Quarter
Nov 12
Full

Hourly Weather History & Observations

Time (EDT) Temp. Windchill Dew Point Humidity Pressure Visibility Wind Dir Wind Speed Gust Speed Precip Events Conditions
12:15 AM 50.7 °F - 50.7 °F 100% 30.07 in 5.0 mi SSW 3.5 mph - N/A   Clear
12:55 AM 46.4 °F - 46.4 °F 100% 30.07 in 0.2 mi Calm Calm - N/A Fog Fog
1:15 AM 46.8 °F - 46.8 °F 100% 30.07 in 0.2 mi SW 3.5 mph - N/A Fog Fog
1:55 AM 49.1 °F - 49.1 °F 100% 30.07 in 0.2 mi Calm Calm - N/A   Overcast
3:55 AM 43.0 °F 40.3 °F 43.0 °F 100% 30.07 in 5.0 mi SW 4.6 mph - N/A   Clear
4:15 AM 44.8 °F 41.0 °F 44.8 °F 100% 30.07 in 10.0 mi SSW 6.9 mph - N/A   Clear
5:35 AM 43.0 °F - 41.7 °F 95% 30.08 in 10.0 mi Calm Calm - N/A   Clear
5:55 AM 42.8 °F 41.1 °F 41.2 °F 94% 30.08 in 10.0 mi SSW 3.5 mph - N/A   Clear
6:15 AM 41.5 °F - 40.8 °F 97% 30.09 in 10.0 mi Calm Calm - N/A   Clear
6:35 AM 40.5 °F - 39.9 °F 98% 30.10 in 10.0 mi Calm Calm - N/A   Clear
6:55 AM 41.4 °F - 41.0 °F 99% 30.10 in 10.0 mi Calm Calm - N/A   Clear
7:15 AM 41.0 °F 39.0 °F 39.9 °F 96% 30.11 in 10.0 mi SSW 3.5 mph - N/A   Clear
7:35 AM 41.5 °F - 39.7 °F 93% 30.11 in 10.0 mi Calm Calm - N/A   Clear
7:55 AM 42.3 °F 39.4 °F 39.9 °F 91% 30.12 in 10.0 mi SW 4.6 mph - N/A   Clear
8:15 AM 44.2 °F 42.7 °F 41.5 °F 90% 30.13 in 10.0 mi SSW 3.5 mph - N/A   Clear
8:35 AM 48.2 °F - 44.2 °F 86% 30.13 in 10.0 mi SSW 3.5 mph - N/A   Clear
8:55 AM 50.2 °F - 44.6 °F 81% 30.14 in 10.0 mi South 4.6 mph - N/A   Clear
9:15 AM 51.1 °F - 44.1 °F 77% 30.15 in 10.0 mi South 6.9 mph - N/A   Clear
9:35 AM 52.7 °F - 45.9 °F 78% 30.16 in 10.0 mi SSW 5.8 mph - N/A   Clear
9:55 AM 54.7 °F - 46.2 °F 73% 30.17 in 10.0 mi SW 5.8 mph - N/A   Clear
10:15 AM 56.7 °F - 45.5 °F 66% 30.17 in 10.0 mi SW 5.8 mph - N/A   Clear
10:35 AM 59.4 °F - 42.3 °F 53% 30.17 in 10.0 mi WSW 6.9 mph - N/A   Clear
10:55 AM 60.1 °F - 40.1 °F 48% 30.16 in 10.0 mi WNW 9.2 mph - N/A   Clear
11:15 AM 61.2 °F - 38.7 °F 43% 30.16 in 10.0 mi WNW 6.9 mph - N/A   Clear
11:35 AM 62.4 °F - 38.3 °F 41% 30.16 in 10.0 mi West 8.1 mph - N/A   Clear
11:55 AM 63.0 °F - 37.8 °F 39% 30.16 in 10.0 mi West 6.9 mph - N/A   Clear
12:15 PM 63.9 °F - 37.0 °F 37% 30.16 in 10.0 mi West 9.2 mph - N/A   Clear
12:35 PM 64.6 °F - 36.7 °F 36% 30.15 in 10.0 mi West 8.1 mph - N/A   Clear
12:55 PM 65.3 °F - 37.4 °F 36% 30.14 in 10.0 mi WSW 9.2 mph - N/A   Clear
1:15 PM 66.7 °F - 37.6 °F 34% 30.13 in 10.0 mi WSW 4.6 mph - N/A   Clear
1:35 PM 66.9 °F - 38.1 °F 35% 30.12 in 10.0 mi SSW 5.8 mph - N/A   Clear
1:55 PM 67.8 °F - 37.8 °F 33% 30.11 in 10.0 mi West 5.8 mph - N/A   Clear
2:15 PM 68.9 °F - 36.7 °F 31% 30.11 in 10.0 mi Calm Calm - N/A   Clear
2:35 PM 69.6 °F - 35.6 °F 29% 30.10 in 10.0 mi West 3.5 mph - N/A   Clear
2:55 PM 70.3 °F - 35.2 °F 28% 30.10 in 10.0 mi WNW 3.5 mph - N/A   Clear
3:15 PM 71.6 °F - 33.8 °F 25% 30.10 in 10.0 mi West 10.4 mph 17.3 mph N/A   Clear
3:35 PM 71.6 °F - 35.2 °F 26% 30.10 in 10.0 mi West 8.1 mph - N/A   Clear
3:55 PM 72.1 °F - 34.3 °F 25% 30.10 in 10.0 mi WSW 9.2 mph - N/A   Clear
4:15 PM 72.0 °F - 34.9 °F 26% 30.09 in 10.0 mi WNW 8.1 mph - N/A   Clear
4:35 PM 71.8 °F - 35.1 °F 26% 30.09 in 10.0 mi NW 9.2 mph - N/A   Clear
4:55 PM 71.6 °F - 34.3 °F 25% 30.09 in 10.0 mi WNW 8.1 mph - N/A   Clear
5:15 PM 71.6 °F - 33.3 °F 24% 30.09 in 10.0 mi WNW 10.4 mph - N/A   Clear
5:35 PM 70.7 °F - 32.7 °F 25% 30.10 in 10.0 mi WNW 9.2 mph - N/A   Clear
5:55 PM 69.8 °F - 33.4 °F 26% 30.10 in 10.0 mi WNW 6.9 mph - N/A   Clear
6:15 PM 68.4 °F - 33.6 °F 28% 30.10 in 10.0 mi WNW 6.9 mph - N/A   Clear
6:35 PM 65.3 °F - 34.2 °F 31% 30.10 in 10.0 mi West 5.8 mph - N/A   Clear
6:55 PM 63.1 °F - 34.0 °F 34% 30.10 in 10.0 mi West 4.6 mph - N/A   Clear
7:15 PM 62.8 °F - 33.6 °F 34% 30.10 in 10.0 mi West 3.5 mph - N/A   Clear
7:35 PM 59.9 °F - 34.5 °F 39% 30.11 in 7.0 mi Calm Calm - N/A   Clear
7:55 PM 57.9 °F - 37.2 °F 46% 30.12 in 3.0 mi SW 5.8 mph - N/A   Haze
8:15 PM 56.7 °F - 38.3 °F 50% 30.12 in 5.0 mi SW 4.6 mph - N/A   Haze
8:35 PM 57.2 °F - 37.6 °F 48% 30.13 in 7.0 mi WSW 3.5 mph - N/A   Clear
8:55 PM 52.7 °F - 37.9 °F 57% 30.15 in 7.0 mi West 3.5 mph - N/A   Clear
9:15 PM 52.3 °F - 39.7 °F 62% 30.15 in 7.0 mi WSW 4.6 mph - N/A   Clear
9:35 PM 54.9 °F - 40.5 °F 58% 30.16 in 10.0 mi WSW 3.5 mph - N/A   Clear
9:55 PM 51.4 °F - 41.4 °F 68% 30.16 in 10.0 mi SSW 3.5 mph - N/A   Clear
10:15 PM 52.2 °F - 41.9 °F 68% 30.17 in 10.0 mi SSW 4.6 mph - N/A   Clear
10:35 PM 53.6 °F - 41.9 °F 65% 30.17 in 10.0 mi SW 5.8 mph - N/A   Clear
10:55 PM 52.9 °F - 42.3 °F 67% 30.17 in 10.0 mi SW 6.9 mph - N/A   Clear
11:15 PM 48.6 °F - 41.4 °F 76% 30.17 in 10.0 mi West 3.5 mph - N/A   Clear
11:35 PM 46.9 °F - 41.2 °F 80% 30.17 in 10.0 mi West 3.5 mph - N/A   Clear
11:55 PM 47.8 °F - 41.7 °F 79% 30.17 in 10.0 mi SW 5.8 mph - N/A   Clear